JCSAT-5A                
1 29045U 06010A   19260.79447007 -.00000332  00000-0  00000-0 0  9992
2 29045   0.0227 233.3205 0002218 320.8369 220.3513  1.00271409 49042
BLOCK DM-SL R/B         
1 29046U 06010B   19260.84278875 -.00000175  00000-0 -33391-2 0  9991
2 29046   0.1911 120.3529 6788963  56.9326  77.7442  2.19420454107690